Location: Ferchesar
(52.6477°N, 12.4298°E)
Time: 05:25:14
(UTC+01:00)

Vanguard 1 Rocket - Pass Details

Date: 08 December 2021
Orbit: 651 x 4224 km, 34.3° (Epoch: 15 January)

Event Time Altitude Azimuth Distance (km) Brightness Sun altitude
Exits shadow 02:38:53 31° 148° (SSE) 3,562 10.2 -47.8°
Drops below altitude 10° 02:51:29 10° 107° (ESE) 6,271 12.0 -46.1°
Sets 02:58:11 0° 100° (E) 7,807 12.7 -45.2°
